contact:dominique.lefevre@mio.osupytheas.fr, maurice.libes@osupytheas.fr, didier.mallarino@osupytheas.fr
Project:EMSO http://www.emso-fr.org/EMSO-France
Depth: 2436.0 m
Title:EMSO Ligure Ouest : Data MII capteur MICROCAT
DateTime_Computer,Latitude,Longitude,Temperature,Conductivity,Pressure,DateTime_Instrument
DateTime_Computer,Latitude,Longitude,degC,S m-1,dbar,DateTime_Instrument
2019-09-28T00:00:37Z,42.805,6.029,13.2993,4.59982,2469.83,2019-9-28T02:01:01Z
2019-09-28T00:03:41Z,42.805,6.029,13.3004,4.59996,2469.844,2019-9-28T02:04:05Z
2019-09-28T00:06:44Z,42.805,6.029,13.2997,4.60007,2469.83,2019-9-28T02:07:08Z
2019-09-28T00:09:47Z,42.805,6.029,13.3000,4.60000,2469.867,2019-9-28T02:10:11Z
2019-09-28T00:12:50Z,42.805,6.029,13.2990,4.59988,2469.89,2019-9-28T02:13:14Z
2019-09-28T00:15:53Z,42.805,6.029,13.3016,4.59988,2469.83,2019-9-28T02:16:17Z
2019-09-28T00:18:56Z,42.805,6.029,13.2979,4.59983,2469.844,2019-9-28T02:19:21Z
2019-09-28T00:22:00Z,42.805,6.029,13.3005,4.59996,2469.867,2019-9-28T02:22:24Z
2019-09-28T00:25:03Z,42.805,6.029,13.3001,4.59984,2469.867,2019-9-28T02:25:27Z
2019-09-28T00:28:06Z,42.805,6.029,13.2993,4.59986,2469.83,2019-9-28T02:28:30Z
2019-09-28T00:31:09Z,42.805,6.029,13.2991,4.59984,2469.83,2019-9-28T02:31:33Z
2019-09-28T00:34:13Z,42.805,6.029,13.2998,4.59986,2469.853,2019-9-28T02:34:37Z
2019-09-28T00:37:16Z,42.805,6.029,13.2998,4.59998,2469.83,2019-9-28T02:37:40Z
2019-09-28T00:40:19Z,42.805,6.029,13.2991,4.59996,2469.844,2019-9-28T02:40:43Z
2019-09-28T00:43:22Z,42.805,6.029,13.2999,4.59999,2469.83,2019-9-28T02:43:46Z
2019-09-28T00:46:25Z,42.805,6.029,13.3000,4.60007,2469.797,2019-9-28T02:46:49Z
2019-09-28T00:49:28Z,42.805,6.029,13.3000,4.59982,2469.844,2019-9-28T02:49:52Z
2019-09-28T00:52:32Z,42.805,6.029,13.3006,4.59991,2469.867,2019-9-28T02:52:56Z
2019-09-28T00:55:35Z,42.805,6.029,13.2998,4.60000,2469.83,2019-9-28T02:55:59Z
2019-09-28T00:58:38Z,42.805,6.029,13.2999,4.59982,2469.853,2019-9-28T02:59:02Z
2019-09-28T01:01:41Z,42.805,6.029,13.2989,4.59998,2469.783,2019-9-28T03:02:05Z
2019-09-28T01:04:44Z,42.805,6.029,13.3002,4.59997,2469.867,2019-9-28T03:05:08Z
2019-09-28T01:07:48Z,42.805,6.029,13.2996,4.59991,2469.806,2019-9-28T03:08:12Z
2019-09-28T01:10:51Z,42.805,6.029,13.2993,4.59981,2469.83,2019-9-28T03:11:15Z
2019-09-28T01:13:54Z,42.805,6.029,13.2993,4.59989,2469.806,2019-9-28T03:14:18Z
2019-09-28T01:16:57Z,42.805,6.029,13.3000,4.59991,2469.806,2019-9-28T03:17:21Z
2019-09-28T01:20:00Z,42.805,6.029,13.3002,4.59986,2469.783,2019-9-28T03:20:24Z
2019-09-28T01:23:04Z,42.805,6.029,13.2998,4.60016,2469.844,2019-9-28T03:23:28Z
2019-09-28T01:26:07Z,42.805,6.029,13.3011,4.59994,2469.821,2019-9-28T03:26:31Z
2019-09-28T01:29:10Z,42.805,6.029,13.3015,4.59986,2469.806,2019-9-28T03:29:34Z
2019-09-28T01:32:13Z,42.805,6.029,13.3011,4.59986,2469.806,2019-9-28T03:32:37Z
2019-09-28T01:35:17Z,42.805,6.029,13.3011,4.59981,2469.806,2019-9-28T03:35:41Z
2019-09-28T01:38:20Z,42.805,6.029,13.2996,4.59982,2469.821,2019-9-28T03:38:44Z
2019-09-28T01:41:23Z,42.805,6.029,13.2982,4.59997,2469.821,2019-9-28T03:41:47Z
2019-09-28T01:44:26Z,42.805,6.029,13.2986,4.59981,2469.821,2019-9-28T03:44:50Z
2019-09-28T01:47:29Z,42.805,6.029,13.3013,4.59986,2469.806,2019-9-28T03:47:53Z
2019-09-28T01:50:32Z,42.805,6.029,13.3002,4.60010,2469.821,2019-9-28T03:50:56Z
2019-09-28T01:53:36Z,42.805,6.029,13.3019,4.59992,2469.806,2019-9-28T03:54:00Z
2019-09-28T01:56:39Z,42.805,6.029,13.2993,4.59983,2469.821,2019-9-28T03:57:03Z
2019-09-28T01:59:42Z,42.805,6.029,13.2988,4.59986,2469.806,2019-9-28T04:00:06Z
2019-09-28T02:02:45Z,42.805,6.029,13.2988,4.59978,2469.821,2019-9-28T04:03:09Z
2019-09-28T02:05:48Z,42.805,6.029,13.2991,4.59984,2469.821,2019-9-28T04:06:13Z
2019-09-28T02:08:52Z,42.805,6.029,13.3015,4.59993,2469.783,2019-9-28T04:09:16Z
2019-09-28T02:11:55Z,42.805,6.029,13.2991,4.59991,2469.83,2019-9-28T04:12:19Z
2019-09-28T02:14:58Z,42.805,6.029,13.2999,4.59980,2469.844,2019-9-28T04:15:22Z
2019-09-28T02:18:01Z,42.805,6.029,13.2991,4.59985,2469.821,2019-9-28T04:18:25Z
2019-09-28T02:21:04Z,42.805,6.029,13.3006,4.59973,2469.806,2019-9-28T04:21:28Z
2019-09-28T02:24:08Z,42.805,6.029,13.2986,4.59976,2469.83,2019-9-28T04:24:32Z
2019-09-28T02:27:11Z,42.805,6.029,13.2982,4.59984,2469.83,2019-9-28T04:27:35Z
2019-09-28T02:30:14Z,42.805,6.029,13.2997,4.59985,2469.83,2019-9-28T04:30:38Z
2019-09-28T02:33:17Z,42.805,6.029,13.2992,4.59978,2469.806,2019-9-28T04:33:41Z
2019-09-28T02:36:20Z,42.805,6.029,13.2992,4.59980,2469.844,2019-9-28T04:36:45Z
2019-09-28T02:39:24Z,42.805,6.029,13.3000,4.59981,2469.821,2019-9-28T04:39:48Z
2019-09-28T02:42:27Z,42.805,6.029,13.2991,4.59988,2469.83,2019-9-28T04:42:51Z
2019-09-28T02:45:30Z,42.805,6.029,13.3004,4.60005,2469.853,2019-9-28T04:45:54Z
2019-09-28T02:48:33Z,42.805,6.029,13.2993,4.59994,2469.876,2019-9-28T04:48:57Z
2019-09-28T02:51:37Z,42.805,6.029,13.2991,4.59995,2469.844,2019-9-28T04:52:01Z
2019-09-28T02:54:40Z,42.805,6.029,13.2997,4.59986,2469.83,2019-9-28T04:55:04Z
2019-09-28T02:57:43Z,42.805,6.029,13.2991,4.59982,2469.867,2019-9-28T04:58:07Z
2019-09-28T03:00:46Z,42.805,6.029,13.2987,4.59990,2469.867,2019-9-28T05:01:10Z
2019-09-28T03:03:49Z,42.805,6.029,13.2989,4.59984,2469.853,2019-9-28T05:04:13Z
2019-09-28T03:06:52Z,42.805,6.029,13.2991,4.59991,2469.853,2019-9-28T05:07:17Z
2019-09-28T03:09:56Z,42.805,6.029,13.2987,4.59983,2469.853,2019-9-28T05:10:20Z
2019-09-28T03:12:59Z,42.805,6.029,13.2993,4.59994,2469.876,2019-9-28T05:13:23Z
2019-09-28T03:16:02Z,42.805,6.029,13.2984,4.59982,2469.876,2019-9-28T05:16:26Z
2019-09-28T03:19:05Z,42.805,6.029,13.2986,4.59983,2469.89,2019-9-28T05:19:29Z
2019-09-28T03:22:09Z,42.805,6.029,13.2990,4.59978,2469.876,2019-9-28T05:22:33Z
2019-09-28T03:25:12Z,42.805,6.029,13.2998,4.59997,2469.867,2019-9-28T05:25:36Z
2019-09-28T03:28:15Z,42.805,6.029,13.2997,4.59993,2469.853,2019-9-28T05:28:39Z
2019-09-28T03:31:18Z,42.805,6.029,13.2996,4.59978,2469.914,2019-9-28T05:31:42Z
2019-09-28T03:34:21Z,42.805,6.029,13.3000,4.59989,2469.9,2019-9-28T05:34:45Z
2019-09-28T03:37:25Z,42.805,6.029,13.2989,4.60023,2469.937,2019-9-28T05:37:49Z
2019-09-28T03:40:28Z,42.805,6.029,13.3002,4.59992,2469.89,2019-9-28T05:40:52Z
2019-09-28T03:43:31Z,42.805,6.029,13.2992,4.59991,2469.876,2019-9-28T05:43:55Z
2019-09-28T03:46:34Z,42.805,6.029,13.2996,4.60014,2469.9,2019-9-28T05:46:58Z
2019-09-28T03:49:37Z,42.805,6.029,13.2991,4.59981,2469.9,2019-9-28T05:50:02Z
2019-09-28T03:52:41Z,42.805,6.029,13.2992,4.59989,2469.9,2019-9-28T05:53:05Z
2019-09-28T03:55:44Z,42.805,6.029,13.2996,4.59983,2469.9,2019-9-28T05:56:08Z
2019-09-28T03:58:47Z,42.805,6.029,13.2998,4.59991,2469.89,2019-9-28T05:59:11Z
2019-09-28T04:01:50Z,42.805,6.029,13.2994,4.59993,2469.9,2019-9-28T06:02:14Z
2019-09-28T04:04:54Z,42.805,6.029,13.3014,4.59981,2469.937,2019-9-28T06:05:18Z
2019-09-28T04:07:57Z,42.805,6.029,13.2991,4.59993,2469.947,2019-9-28T06:08:21Z
2019-09-28T04:11:00Z,42.805,6.029,13.3048,4.59994,2469.923,2019-9-28T06:11:24Z
2019-09-28T04:14:03Z,42.805,6.029,13.2998,4.59983,2469.9,2019-9-28T06:14:27Z
2019-09-28T04:17:06Z,42.805,6.029,13.3035,4.59991,2469.947,2019-9-28T06:17:30Z
2019-09-28T04:20:10Z,42.805,6.029,13.3006,4.59990,2469.96,2019-9-28T06:20:34Z
2019-09-28T04:23:13Z,42.805,6.029,13.2994,4.59983,2469.937,2019-9-28T06:23:37Z
2019-09-28T04:26:16Z,42.805,6.029,13.2988,4.59986,2469.947,2019-9-28T06:26:40Z
2019-09-28T04:29:19Z,42.805,6.029,13.2996,4.59990,2469.947,2019-9-28T06:29:43Z
2019-09-28T04:32:22Z,42.805,6.029,13.2976,4.59986,2469.984,2019-9-28T06:32:46Z
2019-09-28T04:35:25Z,42.805,6.029,13.3006,4.60009,2469.96,2019-9-28T06:35:50Z
2019-09-28T04:38:29Z,42.805,6.029,13.2993,4.60006,2469.947,2019-9-28T06:38:53Z
2019-09-28T04:41:32Z,42.805,6.029,13.3015,4.59991,2469.96,2019-9-28T06:41:56Z
2019-09-28T04:44:35Z,42.805,6.029,13.3021,4.59995,2469.947,2019-9-28T06:44:59Z
2019-09-28T04:47:38Z,42.805,6.029,13.2997,4.59984,2469.97,2019-9-28T06:48:02Z
2019-09-28T04:50:42Z,42.805,6.029,13.2995,4.59977,2469.97,2019-9-28T06:51:06Z
2019-09-28T04:53:45Z,42.805,6.029,13.2991,4.59998,2469.993,2019-9-28T06:54:09Z
2019-09-28T04:56:48Z,42.805,6.029,13.2994,4.59985,2469.993,2019-9-28T06:57:12Z
2019-09-28T04:59:51Z,42.805,6.029,13.3006,4.59991,2469.97,2019-9-28T07:00:15Z
2019-09-28T05:02:54Z,42.805,6.029,13.2992,4.59989,2469.993,2019-9-28T07:03:18Z
2019-09-28T05:05:57Z,42.805,6.029,13.3001,4.59986,2470.03,2019-9-28T07:06:22Z
2019-09-28T05:09:01Z,42.805,6.029,13.2989,4.60001,2469.984,2019-9-28T07:09:25Z
2019-09-28T05:12:04Z,42.805,6.029,13.3013,4.60000,2470.03,2019-9-28T07:12:28Z
2019-09-28T05:15:07Z,42.805,6.029,13.2998,4.59994,2470.017,2019-9-28T07:15:31Z
2019-09-28T05:18:10Z,42.805,6.029,13.3004,4.59997,2470.007,2019-9-28T07:18:34Z
2019-09-28T05:21:14Z,42.805,6.029,13.3000,4.59988,2470.021,2019-9-28T07:21:38Z
2019-09-28T05:24:17Z,42.805,6.029,13.2998,4.59996,2469.993,2019-9-28T07:24:41Z
2019-09-28T05:27:20Z,42.805,6.029,13.3027,4.60034,2470.017,2019-9-28T07:27:44Z
2019-09-28T05:30:23Z,42.805,6.029,13.2997,4.59989,2470.007,2019-9-28T07:30:47Z
2019-09-28T05:33:26Z,42.805,6.029,13.3007,4.60006,2469.993,2019-9-28T07:33:50Z
2019-09-28T05:36:30Z,42.805,6.029,13.3003,4.59998,2470.007,2019-9-28T07:36:54Z
2019-09-28T05:39:33Z,42.805,6.029,13.2993,4.59988,2470.017,2019-9-28T07:39:57Z
2019-09-28T05:42:36Z,42.805,6.029,13.2993,4.60000,2470.017,2019-9-28T07:43:00Z
2019-09-28T05:45:39Z,42.805,6.029,13.3040,4.59991,2470.007,2019-9-28T07:46:03Z
2019-09-28T05:48:42Z,42.805,6.029,13.3004,4.59992,2470.017,2019-9-28T07:49:06Z
2019-09-28T05:51:45Z,42.805,6.029,13.3002,4.59995,2470.04,2019-9-28T07:52:09Z
2019-09-28T05:54:49Z,42.805,6.029,13.3002,4.60002,2470.03,2019-9-28T07:55:13Z
2019-09-28T05:57:52Z,42.805,6.029,13.3019,4.60006,2470.017,2019-9-28T07:58:16Z
2019-09-28T06:00:55Z,42.805,6.029,13.3008,4.59999,2469.993,2019-9-28T08:01:19Z
2019-09-28T06:03:58Z,42.805,6.029,13.2996,4.59990,2470.007,2019-9-28T08:04:22Z
2019-09-28T06:07:01Z,42.805,6.029,13.3004,4.59992,2470.03,2019-9-28T08:07:25Z
2019-09-28T06:10:05Z,42.805,6.029,13.3004,4.59989,2470.04,2019-9-28T08:10:29Z
2019-09-28T06:13:08Z,42.805,6.029,13.3035,4.59986,2470.03,2019-9-28T08:13:32Z
2019-09-28T06:16:11Z,42.805,6.029,13.2994,4.59990,2470.017,2019-9-28T08:16:35Z
2019-09-28T06:19:14Z,42.805,6.029,13.3008,4.59990,2470.017,2019-9-28T08:19:38Z
2019-09-28T06:22:17Z,42.805,6.029,13.3019,4.59999,2470.04,2019-9-28T08:22:41Z
2019-09-28T06:25:21Z,42.805,6.029,13.2993,4.59994,2470.03,2019-9-28T08:25:45Z
2019-09-28T06:28:24Z,42.805,6.029,13.3000,4.59991,2470.03,2019-9-28T08:28:48Z
2019-09-28T06:31:27Z,42.805,6.029,13.3008,4.60003,2470.017,2019-9-28T08:31:51Z
2019-09-28T06:34:30Z,42.805,6.029,13.3000,4.59999,2470.03,2019-9-28T08:34:54Z
2019-09-28T06:37:34Z,42.805,6.029,13.3012,4.60009,2470.03,2019-9-28T08:37:58Z
2019-09-28T06:40:37Z,42.805,6.029,13.3000,4.59993,2470.03,2019-9-28T08:41:01Z
2019-09-28T06:43:40Z,42.805,6.029,13.3021,4.60007,2470.04,2019-9-28T08:44:04Z
2019-09-28T06:46:43Z,42.805,6.029,13.3013,4.60002,2470.03,2019-9-28T08:47:07Z
2019-09-28T06:49:46Z,42.805,6.029,13.3004,4.60002,2470.03,2019-9-28T08:50:10Z
2019-09-28T06:52:49Z,42.805,6.029,13.3008,4.59999,2470.053,2019-9-28T08:53:13Z
2019-09-28T06:55:53Z,42.805,6.029,13.3031,4.60003,2470.017,2019-9-28T08:56:17Z
2019-09-28T06:58:56Z,42.805,6.029,13.3016,4.59996,2470.03,2019-9-28T08:59:20Z
2019-09-28T07:01:59Z,42.805,6.029,13.3006,4.59998,2470.04,2019-9-28T09:02:23Z
2019-09-28T07:05:02Z,42.805,6.029,13.3019,4.59999,2470.053,2019-9-28T09:05:26Z
2019-09-28T07:08:05Z,42.805,6.029,13.3033,4.59994,2470.007,2019-9-28T09:08:29Z
2019-09-28T07:11:08Z,42.805,6.029,13.3004,4.60006,2470.04,2019-9-28T09:11:33Z
2019-09-28T07:14:12Z,42.805,6.029,13.3005,4.60003,2470.053,2019-9-28T09:14:36Z
2019-09-28T07:17:15Z,42.805,6.029,13.3001,4.59988,2470.053,2019-9-28T09:17:39Z
2019-09-28T07:20:18Z,42.805,6.029,13.2999,4.59994,2470.053,2019-9-28T09:20:42Z
2019-09-28T07:23:21Z,42.805,6.029,13.2984,4.59995,2470.017,2019-9-28T09:23:45Z
2019-09-28T07:26:25Z,42.805,6.029,13.3016,4.60001,2470.053,2019-9-28T09:26:49Z
2019-09-28T07:29:28Z,42.805,6.029,13.3021,4.59998,2470.007,2019-9-28T09:29:52Z
2019-09-28T07:32:31Z,42.805,6.029,13.3012,4.59999,2470.007,2019-9-28T09:32:55Z
2019-09-28T07:35:34Z,42.805,6.029,13.3004,4.59988,2470.03,2019-9-28T09:35:58Z
2019-09-28T07:38:37Z,42.805,6.029,13.3004,4.59986,2470.017,2019-9-28T09:39:01Z
2019-09-28T07:41:41Z,42.805,6.029,13.3009,4.60003,2470.053,2019-9-28T09:42:05Z
2019-09-28T07:44:44Z,42.805,6.029,13.3027,4.59994,2470.03,2019-9-28T09:45:08Z
2019-09-28T07:47:47Z,42.805,6.029,13.3003,4.59999,2470.017,2019-9-28T09:48:11Z
2019-09-28T07:50:50Z,42.805,6.029,13.3004,4.59998,2470.017,2019-9-28T09:51:14Z
2019-09-28T07:53:53Z,42.805,6.029,13.3004,4.59983,2469.979,2019-9-28T09:54:17Z
2019-09-28T07:56:56Z,42.805,6.029,13.3004,4.59994,2469.993,2019-9-28T09:57:20Z
2019-09-28T08:00:00Z,42.805,6.029,13.2994,4.60000,2470.017,2019-9-28T10:00:24Z
2019-09-28T08:03:03Z,42.805,6.029,13.3012,4.60000,2470.04,2019-9-28T10:03:27Z
2019-09-28T08:06:06Z,42.805,6.029,13.3026,4.59998,2470.04,2019-9-28T10:06:30Z
2019-09-28T08:09:09Z,42.805,6.029,13.3004,4.59994,2470.007,2019-9-28T10:09:33Z
2019-09-28T08:12:12Z,42.805,6.029,13.3000,4.59990,2470.017,2019-9-28T10:12:36Z
2019-09-28T08:15:16Z,42.805,6.029,13.3021,4.60006,2470.03,2019-9-28T10:15:40Z
2019-09-28T08:18:19Z,42.805,6.029,13.3030,4.60011,2470.03,2019-9-28T10:18:43Z
2019-09-28T08:21:22Z,42.805,6.029,13.3033,4.59999,2470.03,2019-9-28T10:21:46Z
2019-09-28T08:24:25Z,42.805,6.029,13.3039,4.59997,2470.007,2019-9-28T10:24:49Z
2019-09-28T08:27:29Z,42.805,6.029,13.3016,4.59996,2470.007,2019-9-28T10:27:53Z
2019-09-28T08:30:32Z,42.805,6.029,13.3002,4.60006,2469.984,2019-9-28T10:30:56Z
2019-09-28T08:33:35Z,42.805,6.029,13.3008,4.59992,2469.984,2019-9-28T10:33:59Z
2019-09-28T08:36:38Z,42.805,6.029,13.3020,4.59996,2470.007,2019-9-28T10:37:02Z
2019-09-28T08:39:41Z,42.805,6.029,13.3009,4.59998,2469.993,2019-9-28T10:40:05Z
2019-09-28T08:42:45Z,42.805,6.029,13.3011,4.59999,2470.007,2019-9-28T10:43:09Z
2019-09-28T08:45:48Z,42.805,6.029,13.3016,4.59995,2469.993,2019-9-28T10:46:12Z
2019-09-28T08:48:51Z,42.805,6.029,13.2996,4.59997,2469.97,2019-9-28T10:49:15Z
2019-09-28T08:51:54Z,42.805,6.029,13.3003,4.59994,2469.993,2019-9-28T10:52:18Z
2019-09-28T08:54:57Z,42.805,6.029,13.3013,4.59994,2469.97,2019-9-28T10:55:22Z
2019-09-28T08:58:01Z,42.805,6.029,13.3045,4.59994,2469.993,2019-9-28T10:58:25Z
2019-09-28T09:01:04Z,42.805,6.029,13.3009,4.59999,2470.007,2019-9-28T11:01:28Z
2019-09-28T09:04:07Z,42.805,6.029,13.3005,4.59989,2469.96,2019-9-28T11:04:31Z
2019-09-28T09:07:10Z,42.805,6.029,13.3026,4.59995,2469.984,2019-9-28T11:07:34Z
2019-09-28T09:10:13Z,42.805,6.029,13.3005,4.60003,2469.984,2019-9-28T11:10:37Z
2019-09-28T09:13:17Z,42.805,6.029,13.3010,4.59992,2469.984,2019-9-28T11:13:41Z
2019-09-28T09:16:20Z,42.805,6.029,13.3005,4.59999,2469.96,2019-9-28T11:16:44Z
2019-09-28T09:19:23Z,42.805,6.029,13.3015,4.59991,2469.947,2019-9-28T11:19:47Z
2019-09-28T09:22:26Z,42.805,6.029,13.3000,4.59992,2469.947,2019-9-28T11:22:50Z
2019-09-28T09:25:29Z,42.805,6.029,13.3011,4.59997,2469.96,2019-9-28T11:25:53Z
2019-09-28T09:28:33Z,42.805,6.029,13.2999,4.59995,2469.947,2019-9-28T11:28:57Z
2019-09-28T09:31:36Z,42.805,6.029,13.3006,4.59991,2469.937,2019-9-28T11:32:00Z
2019-09-28T09:34:39Z,42.805,6.029,13.2998,4.59997,2469.947,2019-9-28T11:35:03Z
2019-09-28T09:37:42Z,42.805,6.029,13.3024,4.59987,2469.937,2019-9-28T11:38:07Z
2019-09-28T09:40:46Z,42.805,6.029,13.3002,4.59989,2469.97,2019-9-28T11:41:10Z
2019-09-28T09:43:49Z,42.805,6.029,13.3000,4.59991,2469.937,2019-9-28T11:44:13Z
2019-09-28T09:46:52Z,42.805,6.029,13.3005,4.59994,2469.937,2019-9-28T11:47:16Z
2019-09-28T09:49:55Z,42.805,6.029,13.2995,4.59996,2469.937,2019-9-28T11:50:19Z
2019-09-28T09:52:58Z,42.805,6.029,13.2998,4.59998,2469.937,2019-9-28T11:53:23Z
2019-09-28T09:56:02Z,42.805,6.029,13.2993,4.59995,2469.947,2019-9-28T11:56:26Z
2019-09-28T09:59:05Z,42.805,6.029,13.2995,4.59996,2469.96,2019-9-28T11:59:29Z
2019-09-28T10:02:08Z,42.805,6.029,13.2993,4.59987,2469.96,2019-9-28T12:02:32Z
2019-09-28T10:05:12Z,42.805,6.029,13.3000,4.59996,2469.937,2019-9-28T12:05:36Z
2019-09-28T10:08:15Z,42.805,6.029,13.3010,4.60004,2469.937,2019-9-28T12:08:39Z
2019-09-28T10:11:18Z,42.805,6.029,13.2999,4.59992,2469.937,2019-9-28T12:11:42Z
2019-09-28T10:14:21Z,42.805,6.029,13.2996,4.59996,2469.923,2019-9-28T12:14:45Z
2019-09-28T10:17:24Z,42.805,6.029,13.2996,4.59986,2469.923,2019-9-28T12:17:49Z
2019-09-28T10:20:28Z,42.805,6.029,13.2995,4.59981,2469.914,2019-9-28T12:20:52Z
2019-09-28T10:23:31Z,42.805,6.029,13.2994,4.59981,2469.96,2019-9-28T12:23:55Z
2019-09-28T10:26:34Z,42.805,6.029,13.2990,4.59990,2469.937,2019-9-28T12:26:58Z
2019-09-28T10:29:37Z,42.805,6.029,13.2999,4.60011,2469.923,2019-9-28T12:30:01Z
2019-09-28T10:32:41Z,42.805,6.029,13.2995,4.60006,2469.937,2019-9-28T12:33:05Z
2019-09-28T10:35:44Z,42.805,6.029,13.2991,4.59983,2469.9,2019-9-28T12:36:08Z
2019-09-28T10:38:47Z,42.805,6.029,13.2996,4.59990,2469.914,2019-9-28T12:39:11Z
2019-09-28T10:41:50Z,42.805,6.029,13.2992,4.60000,2469.923,2019-9-28T12:42:14Z
2019-09-28T10:44:53Z,42.805,6.029,13.2992,4.59985,2469.876,2019-9-28T12:45:17Z
2019-09-28T10:47:57Z,42.805,6.029,13.2996,4.59990,2469.9,2019-9-28T12:48:21Z
2019-09-28T10:51:00Z,42.805,6.029,13.3001,4.59991,2469.876,2019-9-28T12:51:24Z
2019-09-28T10:54:03Z,42.805,6.029,13.2979,4.59993,2469.9,2019-9-28T12:54:27Z
2019-09-28T10:57:06Z,42.805,6.029,13.2999,4.60024,2469.89,2019-9-28T12:57:30Z
2019-09-28T11:00:09Z,42.805,6.029,13.2996,4.59989,2469.853,2019-9-28T13:00:33Z
2019-09-28T11:03:13Z,42.805,6.029,13.3029,4.59996,2469.914,2019-9-28T13:03:37Z
2019-09-28T11:06:16Z,42.805,6.029,13.2986,4.60009,2469.89,2019-9-28T13:06:40Z
2019-09-28T11:09:19Z,42.805,6.029,13.2997,4.59983,2469.89,2019-9-28T13:09:43Z
2019-09-28T11:12:22Z,42.805,6.029,13.3011,4.59987,2469.876,2019-9-28T13:12:46Z
2019-09-28T11:15:25Z,42.805,6.029,13.2996,4.59978,2469.914,2019-9-28T13:15:49Z
2019-09-28T11:18:29Z,42.805,6.029,13.2992,4.59994,2469.89,2019-9-28T13:18:53Z
2019-09-28T11:21:32Z,42.805,6.029,13.2991,4.59991,2469.853,2019-9-28T13:21:56Z
2019-09-28T11:24:35Z,42.805,6.029,13.2990,4.59978,2469.853,2019-9-28T13:24:59Z
2019-09-28T11:27:38Z,42.805,6.029,13.3000,4.59993,2469.89,2019-9-28T13:28:02Z
2019-09-28T11:30:41Z,42.805,6.029,13.3028,4.59989,2469.89,2019-9-28T13:31:05Z
2019-09-28T11:33:45Z,42.805,6.029,13.2989,4.59999,2469.821,2019-9-28T13:34:09Z
2019-09-28T11:36:48Z,42.805,6.029,13.2993,4.59988,2469.89,2019-9-28T13:37:12Z
2019-09-28T11:39:51Z,42.805,6.029,13.3000,4.59987,2469.89,2019-9-28T13:40:15Z
2019-09-28T11:42:54Z,42.805,6.029,13.3026,4.60006,2469.867,2019-9-28T13:43:18Z
2019-09-28T11:45:57Z,42.805,6.029,13.2992,4.59988,2469.853,2019-9-28T13:46:21Z
2019-09-28T11:49:01Z,42.805,6.029,13.3020,4.59986,2469.867,2019-9-28T13:49:25Z
2019-09-28T11:52:04Z,42.805,6.029,13.2993,4.59994,2469.844,2019-9-28T13:52:28Z
2019-09-28T11:55:07Z,42.805,6.029,13.3008,4.59999,2469.844,2019-9-28T13:55:31Z
2019-09-28T11:58:10Z,42.805,6.029,13.2993,4.59993,2469.867,2019-9-28T13:58:34Z
2019-09-28T12:01:13Z,42.805,6.029,13.2996,4.59977,2469.821,2019-9-28T14:01:37Z
2019-09-28T12:04:16Z,42.805,6.029,13.2991,4.59981,2469.844,2019-9-28T14:04:41Z
2019-09-28T12:07:20Z,42.805,6.029,13.2985,4.59984,2469.83,2019-9-28T14:07:44Z
2019-09-28T12:10:23Z,42.805,6.029,13.2983,4.60001,2469.83,2019-9-28T14:10:47Z
2019-09-28T12:13:26Z,42.805,6.029,13.2997,4.59991,2469.83,2019-9-28T14:13:50Z
2019-09-28T12:16:29Z,42.805,6.029,13.3040,4.59983,2469.844,2019-9-28T14:16:53Z
2019-09-28T12:19:32Z,42.805,6.029,13.2986,4.60003,2469.806,2019-9-28T14:19:57Z
2019-09-28T12:22:36Z,42.805,6.029,13.3004,4.59990,2469.83,2019-9-28T14:23:00Z
2019-09-28T12:25:39Z,42.805,6.029,13.2994,4.59996,2469.844,2019-9-28T14:26:03Z
2019-09-28T12:28:42Z,42.805,6.029,13.2983,4.59994,2469.844,2019-9-28T14:29:06Z
2019-09-28T12:31:45Z,42.805,6.029,13.2998,4.60002,2469.806,2019-9-28T14:32:09Z
2019-09-28T12:34:49Z,42.805,6.029,13.2996,4.59983,2469.821,2019-9-28T14:35:13Z
2019-09-28T12:37:52Z,42.805,6.029,13.2994,4.59975,2469.844,2019-9-28T14:38:16Z
2019-09-28T12:40:55Z,42.805,6.029,13.2998,4.59982,2469.821,2019-9-28T14:41:19Z
2019-09-28T12:43:58Z,42.805,6.029,13.2993,4.60003,2469.876,2019-9-28T14:44:22Z
2019-09-28T12:47:02Z,42.805,6.029,13.3004,4.59981,2469.867,2019-9-28T14:47:26Z
2019-09-28T12:50:05Z,42.805,6.029,13.2980,4.59981,2469.867,2019-9-28T14:50:29Z
2019-09-28T12:53:08Z,42.805,6.029,13.2987,4.59999,2469.844,2019-9-28T14:53:32Z
2019-09-28T12:56:11Z,42.805,6.029,13.3005,4.60016,2469.821,2019-9-28T14:56:35Z
2019-09-28T12:59:14Z,42.805,6.029,13.3005,4.59992,2469.821,2019-9-28T14:59:38Z
2019-09-28T13:02:18Z,42.805,6.029,13.3004,4.59996,2469.844,2019-9-28T15:02:42Z
2019-09-28T13:05:21Z,42.805,6.029,13.2988,4.59997,2469.806,2019-9-28T15:05:45Z
2019-09-28T13:08:24Z,42.805,6.029,13.2990,4.59977,2469.821,2019-9-28T15:08:48Z
2019-09-28T13:11:27Z,42.805,6.029,13.3069,4.59992,2469.844,2019-9-28T15:11:51Z
2019-09-28T13:14:30Z,42.805,6.029,13.3009,4.59985,2469.783,2019-9-28T15:14:54Z
2019-09-28T13:17:34Z,42.805,6.029,13.2989,4.59988,2469.821,2019-9-28T15:17:58Z
2019-09-28T13:20:37Z,42.805,6.029,13.2990,4.59996,2469.821,2019-9-28T15:21:01Z
2019-09-28T13:23:40Z,42.805,6.029,13.2987,4.59995,2469.821,2019-9-28T15:24:04Z
2019-09-28T13:26:43Z,42.805,6.029,13.2979,4.59981,2469.806,2019-9-28T15:27:07Z
2019-09-28T13:29:47Z,42.805,6.029,13.2974,4.60001,2469.783,2019-9-28T15:30:11Z
2019-09-28T13:32:50Z,42.805,6.029,13.2984,4.60003,2469.844,2019-9-28T15:33:14Z
2019-09-28T13:35:53Z,42.805,6.029,13.2990,4.60006,2469.844,2019-9-28T15:36:17Z
2019-09-28T13:38:56Z,42.805,6.029,13.2977,4.59982,2469.844,2019-9-28T15:39:20Z
2019-09-28T13:41:59Z,42.805,6.029,13.2983,4.59999,2469.867,2019-9-28T15:42:23Z
2019-09-28T13:45:02Z,42.805,6.029,13.3001,4.59992,2469.867,2019-9-28T15:45:27Z
2019-09-28T13:48:06Z,42.805,6.029,13.2983,4.59998,2469.867,2019-9-28T15:48:30Z
2019-09-28T13:51:09Z,42.805,6.029,13.3006,4.59995,2469.844,2019-9-28T15:51:33Z
2019-09-28T13:54:12Z,42.805,6.029,13.3009,4.59989,2469.844,2019-9-28T15:54:36Z
2019-09-28T13:57:15Z,42.805,6.029,13.2995,4.59991,2469.844,2019-9-28T15:57:39Z
2019-09-28T14:00:18Z,42.805,6.029,13.2982,4.59981,2469.821,2019-9-28T16:00:43Z
2019-09-28T14:03:22Z,42.805,6.029,13.3003,4.59981,2469.867,2019-9-28T16:03:46Z
2019-09-28T14:06:25Z,42.805,6.029,13.2986,4.60019,2469.844,2019-9-28T16:06:49Z
2019-09-28T14:09:28Z,42.805,6.029,13.2993,4.59993,2469.806,2019-9-28T16:09:52Z
2019-09-28T14:12:31Z,42.805,6.029,13.2979,4.59992,2469.844,2019-9-28T16:12:55Z
2019-09-28T14:15:34Z,42.805,6.029,13.2991,4.59989,2469.83,2019-9-28T16:15:59Z
2019-09-28T14:18:38Z,42.805,6.029,13.2976,4.59981,2469.83,2019-9-28T16:19:02Z
2019-09-28T14:21:41Z,42.805,6.029,13.2996,4.59982,2469.83,2019-9-28T16:22:05Z
2019-09-28T14:24:44Z,42.805,6.029,13.2996,4.59983,2469.844,2019-9-28T16:25:08Z
2019-09-28T14:27:47Z,42.805,6.029,13.2994,4.59980,2469.844,2019-9-28T16:28:11Z
2019-09-28T14:30:50Z,42.805,6.029,13.2985,4.59986,2469.844,2019-9-28T16:31:14Z
2019-09-28T14:33:54Z,42.805,6.029,13.2989,4.59983,2469.867,2019-9-28T16:34:18Z
2019-09-28T14:36:57Z,42.805,6.029,13.2989,4.60028,2469.853,2019-9-28T16:37:21Z
2019-09-28T14:40:00Z,42.805,6.029,13.2987,4.60001,2469.853,2019-9-28T16:40:25Z
2019-09-28T14:43:04Z,42.805,6.029,13.2993,4.59992,2469.867,2019-9-28T16:43:28Z
2019-09-28T14:46:07Z,42.805,6.029,13.3020,4.59993,2469.876,2019-9-28T16:46:31Z
2019-09-28T14:49:10Z,42.805,6.029,13.3000,4.60042,2469.844,2019-9-28T16:49:34Z
2019-09-28T14:52:13Z,42.805,6.029,13.2986,4.60021,2469.867,2019-9-28T16:52:37Z
2019-09-28T14:55:17Z,42.805,6.029,13.3003,4.59989,2469.876,2019-9-28T16:55:41Z
2019-09-28T14:58:20Z,42.805,6.029,13.3126,4.59984,2469.876,2019-9-28T16:58:44Z
2019-09-28T15:01:23Z,42.805,6.029,13.2988,4.60003,2469.9,2019-9-28T17:01:47Z
2019-09-28T15:04:27Z,42.805,6.029,13.2979,4.59986,2469.914,2019-9-28T17:04:51Z
2019-09-28T15:07:30Z,42.805,6.029,13.2986,4.59977,2469.89,2019-9-28T17:07:54Z
2019-09-28T15:10:33Z,42.805,6.029,13.2982,4.60001,2469.876,2019-9-28T17:10:57Z
2019-09-28T15:13:36Z,42.805,6.029,13.2974,4.60011,2469.914,2019-9-28T17:14:00Z